CZ-3B DEB, 40162

Orbit data source: Space-Track

CZ-3B DEB, 40162 is space debris in HEO originally from a launch on Sat, 04 Sep 2010 UTC launched from the Xichang Space Center, China (XSC). Debris objects in space refer to the collection of defunct objects orbiting the Earth. Examples of debris include non-operational satellites, rocket bodies, and fragments generated from explosions, collisions, or faulty payload assembly.

Loading next visibility...
CZ-3B DEB details
Identifier
40162, 2010-042P
Orbit
HEO
Last TLE update1 day ago
Origin
Flag of CNCASC (CN / PRC)
ManufacturerCALT
MissionSpacecraft
Bus & MotorUnknown
MassUnknown
Launch date (UTC)
2010-09-04 (14 years ago)
Launch vehicleUnknown
Launch site
Xichang Space Center, China (XSC)
Object type
Payload
Rocket body
Debris
Shape & HBRUnknown
Radar Cross SectionMedium (>0.1 m² and <1 m²)

Expand to show TLE details & history

TLE from 1 day ago
0 CZ-3B DEB
1 40162U 10042P   24360.53837132 -.00000004  00000-0  00000-0 0  9992
2 40162  27.2724  24.6192 7207709 143.4813 298.9930  1.92036709 77853
Epoch: 2024-12-25T12:55Z
Definitive object data (Epoch: 2024-12-25T12:55:15.282Z)
Latitude0.00002°
Longitude96.29108°
Altitude24,837.812 km
Speed3.31 km/s
True Right ascension01h 38m 32s
True Declination0° 00' 00"
Sunlit
Object was in daylight at TLE epoch
Visualization TLE readout
Latitude-25.56922°
Longitude28.00727°
Altitude26,224.749 km
Speed3.142 km/s
Apparent Right ascension21h 38m 19s
Apparent Declination-34° 15' 55"
Sunlit
Object is in daylight
Visualization observer readout
Local Sidereal Time17:41:20
Azimuth134.708° SE
Elevation-2.129°
Doppler factor1
Orbital elements
Apogee altitude40,674.968 km
Perigee altitude1,257.16 km
Semi-major axis27,344.201 km
Eccentricity0.7207709
Inclination27.2724°
RAAN24.6192°
Arg. of periapsis143.4813°
True anomaly216.44841°
Mean anomaly298.993°
Eccentric anomaly258.52179°
Mean motion0.48 °/min
BSTARUnknown
Orbital period749.99 mins
Loading maneuver chart data...
Loading historical data...
Loading historical data...
Loading historical data...
Loading historical data...
Loading historical data...
Loading historical data...
Loading historical data...

CZ-3B DEB Visibility forecast

Observer location: undefined°, undefined

Span
Click to sort rows by Start time (UTC) header in descending order
Start Az.
Max El. time (UTC)
Max El. Az.
Max El.
End time (UTC)
End Az.
468 mins2024-12-26 20:24:51.543Z139.064° SSE2024-12-27 03:40:51.543Z160.627° S37.582°2024-12-27 04:12:51.543Z93.907° ESE
|